This is the latest recevied weather packets stored in our database for station/object KD7AWQ. If no packets are shown the sender has not sent any weather packets the latest 10 day(s).
| Time | Temp. | Humidity | Pressure | Rain* | Wind** | Luminosity | Snow |
|---|---|---|---|---|---|---|---|
| 1777986270 | 10.56° C | 93% | 1181 hPa | 0 mm | - | 2 W/m² | - |
| 1777985967 | 10.56° C | 93% | 1180.9 hPa | 0 mm | - | 3 W/m² | - |
| 1777985664 | 10.56° C | 93% | 1181 hPa | 1.27 mm | - | 4 W/m² | - |
| 1777985361 | 10.56° C | 94% | 1181 hPa | 3.05 mm | - | 4 W/m² | - |
| 1777985058 | 10.56° C | 94% | 1180.9 hPa | 3.56 mm | - | 3 W/m² | - |
| 1777984754 | 10.56° C | 94% | 1181 hPa | 3.05 mm | - | 1 W/m² | - |
| 1777984451 | 11.11° C | 94% | 1180.6 hPa | 3.05 mm | - | 1 W/m² | - |
| 1777984146 | 11.11° C | 94% | 1181 hPa | 1.78 mm | - | 0 W/m² | - |
| 1777983844 | 11.11° C | 94% | 1181.1 hPa | 1.27 mm | - | 0 W/m² | - |
| 1777983540 | 11.11° C | 94% | 1181.1 hPa | 1.27 mm | - | 0 W/m² | - |
| 1777983238 | 11.11° C | 94% | 1181 hPa | 1.78 mm | - | 0 W/m² | - |
| 1777982933 | 11.11° C | 94% | 1181 hPa | 3.05 mm | - | 0 W/m² | - |
| 1777982630 | 11.11° C | 94% | 1181.2 hPa | 1.27 mm | - | 0 W/m² | - |
| 1777982328 | 11.11° C | 94% | 1181.2 hPa | 1.78 mm | - | 0 W/m² | - |
| 1777982026 | 11.11° C | 94% | 1181.4 hPa | 1.27 mm | - | 0 W/m² | - |
| 1777981724 | 11.11° C | 94% | 1181.6 hPa | 3.05 mm | - | 0 W/m² | - |
| 1777981420 | 11.11° C | 94% | 1181.4 hPa | 1.27 mm | - | 0 W/m² | - |
| 1777981116 | 11.11° C | 93% | 1181.2 hPa | 1.27 mm | - | 0 W/m² | - |
| 1777980813 | 11.11° C | 93% | 1181.1 hPa | 0 mm | - | 0 W/m² | - |
| 1777980509 | 11.11° C | 93% | 1181.4 hPa | 1.78 mm | - | 0 W/m² | - |
| 1777980206 | 11.11° C | 92% | 1181.2 hPa | 0 mm | - | 0 W/m² | - |
| 1777979902 | 11.67° C | 90% | 1181.3 hPa | 0 mm | - | 0 W/m² | - |
| 1777979597 | 11.67° C | 84% | 1181.4 hPa | 0 mm | - | 0 W/m² | - |
| 1777979294 | 11.67° C | 85% | 1181.1 hPa | 0 mm | - | 0 W/m² | - |
| 1777978991 | 11.67° C | 85% | 1181.2 hPa | 0 mm | - | 0 W/m² | - |
* Rain latest hour (hover to see other rain measurements)
** Current wind speed in m/s (hover to see current wind gust speed)